Regional Weather Roundup
Issued by NWS

Home | Current Version | Previous Version | Text Only | Print | Product List | Glossary On
Versions: 1 2 3 4 5 6 7 8 9 10 11 12 13 14 15 16 17 18 19 20 21 22 23 24 25 26 27 28 29 30 31 32 33 34 35 36 37 38 39 40 41 42 43 44 45 46 47 48 49 50
000
ASUS44 KMEG 111010
RWRTN
TENNESSEE HOURLY STATE WEATHER ROUNDUP
NATIONAL WEATHER SERVICE MEMPHIS TN
400 AM CST SUN DEC 11 2016

TNZ002-004-019-021-049-052-054-088>092-111100-
WEST TENNESSEE

CITY           SKY/WX    TMP DP  RH WIND       PRES   REMARKS
MEMPHIS INTL   CLOUDY    41  18  39 S12       30.21F
NWS MEMPHIS      N/A     41 N/A N/A MISG        N/A
JACKSON        CLOUDY    38  17  42 S8        30.27F WCI  32
DYERSBURG      CLOUDY    39  18  41 S9        30.22F WCI  33
UNION CITY     CLOUDY    37  18  44 S8        30.20F WCI  31
PARIS          CLOUDY    36  16  44 S9        30.25F WCI  29
HUNTINGDON     CLOUDY    37  18  44 S9        30.25F WCI  31
LEXINGTON      MOCLDY    34  16  47 CALM      30.27S
$$

TNZ008-025-027-028-033-062-065-066-111100-
NORTH MIDDLE TENNESSEE

CITY           SKY/WX    TMP DP  RH WIND       PRES   REMARKS
NASHVILLE      CLOUDY    28  17  63 E5        30.31F WCI  23
PORTLAND       CLOUDY    34  18  51 S12       30.27F WCI  25
CLARKSVILLE    CLOUDY    33  17  51 S5        30.28F WCI  29
SMYRNA         CLOUDY    24  20  84 SE3       30.34R
GALLATIN       CLOUDY    25  19  80 CALM      30.34F
CROSSVILLE     CLOUDY    32  16  51 VRB6      30.28F WCI  26
$$

TNZ061-075-076-078-094-096-097-111100-
SOUTH MIDDLE TENNESSEE

CITY           SKY/WX    TMP DP  RH WIND       PRES   REMARKS
FAYETTEVILLE   CLEAR     32  16  51 S9        30.30F WCI  24
TULLAHOMA      CLEAR     30  12  47 S6        30.30F WCI  24
WINCHESTER     CLEAR     30  18  59 SE7       30.31F WCI  23
MCMINNVILLE    CLEAR     21  18  86 CALM        N/A
COLUMBIA       CLEAR     25  25 100 CALM      30.28F
SHELBYVILLE    CLEAR     32  18  55 SE3       30.32R
$$

TNZ017-018-042-046-047-111100-
NORTHEAST TENNESSEE

CITY           SKY/WX    TMP DP  RH WIND       PRES   REMARKS
TRI CITIES     PTCLDY    22  16  78 CALM      30.35S
ELIZABETHTON   CLEAR     23  18  80 CALM      30.34S
$$

TNZ012-013-036-069-073-074-111100-
CENTRAL EAST TENNESSEE

CITY           SKY/WX    TMP DP  RH WIND       PRES   REMARKS
KNOXVILLE      CLOUDY    23  18  81 CALM      30.36S
OAK RIDGE      CLOUDY    24  19  81 CALM      30.36F
DOWNTOWN KNOXV CLEAR     23  23 100 CALM      30.36F
GATLINBURG     CLEAR     19  16  86 CALM      30.36S
MORRISTOWN     CLEAR     25  16  68 E5        30.32F WCI  19
JACKSBORO      CLEAR     21  19  93 CALM      30.37F
$$

TNZ083-085-099-111100-
SOUTHEAST TENNESSEE

CITY           SKY/WX    TMP DP  RH WIND       PRES   REMARKS
CHATTANOOGA    CLOUDY    26  19  74 CALM      30.38F
$$

SKY/WX REPORTED AS FAIR MEANS FEW OR NO CLOUDS BELOW
12 THOUSAND FEET.




USA.gov is the U.S. government's official web portal to all federal, state and local government web resources and services.